Downstream station:
SHEF ID: ENWK1 CROOKED C NR ENGLEWOOD, KS
STATION TYPE:
Regulating: Stage = 6.50, Flow = 243
PRECIP STAGE RIV-FLOW BAT-LOAD
in ft cfs volt
Ccp-Rev Ccp-Rev Ccp-Rev Ccp-Rev
(US/Central)
12/20 00:00 0.00 2.45 4 12.89
12/20 01:00 0.00 2.45 4 12.89
12/20 02:00 0.00 2.45 4 12.83
12/20 03:00 0.00 2.46 4 12.83
12/20 04:00 0.00 2.48 4 12.77
12/20 05:00 0.00 2.61 6 12.71
12/20 06:00 0.00 2.65 6 12.65
12/20 07:00 0.00 2.69 7 12.60
12/20 08:00 0.00 2.73 8 12.54
12/20 09:00 0.00 2.75 8 14.06
12/20 10:00 0.00 2.79 9 14.88
12/20 11:00 0.00 2.42 3 14.65
12/20 12:00 0.00 2.38 3 14.41
12/20 13:00 0.00 2.36 3 14.24
12/20 14:00 0.00 2.35 3 14.12
12/20 15:00 0.00 2.37 3 14.06
12/20 16:00 0.00 2.42 3 14.12
12/20 17:00 0.00 2.46 4 14.00
12/20 18:00 0.00 2.46 4 13.53
12/20 19:00 0.00 2.46 4 13.12
12/20 20:00 0.00 2.45 4 13.00
12/20 21:00 0.00 2.45 4 12.95
12/20 22:00 0.00 2.44 4 12.89
12/20 23:00 ---- ---- ---- ----